Location: Altleiningen
(49.5078°N, 8.0741°E)
Time: 04:58:44
(UTC+00:00)

ATLAS CENTAUR R/B - Pass Details

Date: 03 March 2021
Orbit: 475 x 670 km, 64.7° (Epoch: 30 March)

Event Time Altitude Azimuth Distance (km) Brightness Sun altitude
Rises 19:58:03 0° 247° (WSW) 2,520 5.3 -26.9°
Reaches altitude 10° 20:00:21 10° 258° (WSW) 1,645 4.4 -27.3°
Enters shadow 20:03:16 29° 310° (NW) 902 2.9 -27.7°
